Location: Rancho Del Sol Observatory
(38.7214°N, 120.6350°W)
Time: 13:08:11
(UTC-08:00)

A-11 Canister half - Pass Details

Date: 31 January 2020
Orbit: 1517 x 1683 km, 47.2° (Epoch: 19 February)

Event Time Altitude Azimuth Distance (km) Brightness Sun altitude
Rises 00:23:14 0° 274° (W) 4,740 - -68.7°
Reaches altitude 10° 00:26:29 10° 280° (W) 3,736 - -68.6°
Maximum altitude 00:35:36 51° 355° (N) 1,852 - -68.3°
Drops below altitude 10° 00:44:33 10° 70° (ENE) 3,678 - -67.9°
Sets 00:47:44 0° 76° (ENE) 4,661 - -67.7°
